CZ-6A DEB, 54574

Orbit data source: Space-Track

CZ-6A DEB, 54574 is space debris in SSO originally from a launch on Fri, 11 Nov 2022 UTC launched from the Taiyaun Space Center, China (TSC). Debris objects in space refer to the collection of defunct objects orbiting the Earth. Examples of debris include non-operational satellites, rocket bodies, and fragments generated from explosions, collisions, or faulty payload assembly.

Loading next visibility...
Identifier
54574, 2022-151MA
Orbit
SSO
Country
Flag of CNCN / PRC
Related business
Manufacturer
SAST
Mission
Spacecraft
Bus & Motor
Unknown
Mass
Unknown
Launch date (UTC)
2022-11-11 (3 years ago)
Launch vehicle
Unknown
Launch site
Taiyaun Space Center, China (TSC)
Object type
Payload
Rocket body
Debris
Shape & HBR
Unknown shape, 0.1 m
Radar Cross Section
Small (<0.1 m²)

Expand to show TLE details & history
Last TLE update: 12 hours ago

TLE from 12 hours ago
0 CZ-6A DEB
1 54574U 22151MA  26130.08980630  .00002242  00000-0  52813-3 0  9994
2 54574  98.5622 174.8436 0102521  60.1898 300.9443 14.52161889183476
Epoch: 2026-05-10T02:09Z
TLE epoch observation values (Epoch: 2026-05-10T02:09:19.264Z)
Latitude
0.00002°
Longitude
-85.38456°
Altitude
684.693 km
Speed
7.534 km/s
True Right ascension
11h 39m 22s
True Declination
0° 00' 00"
Sunlit
Object was in full shadow at epoch
Visualization orbit readout
Latitude
Unknown
Longitude
Unknown
Altitude
Unknown
Speed
Unknown
Apparent Right ascension
Unknown
Apparent Declination
Unknown
Sunlit
N/A
Visualization observer readout
Local Sidereal Time
22:08:35
Azimuth
Unknown
Elevation
Unknown
Doppler factor
Unknown
Orbital elements
Apogee altitude
788.431 km
Perigee altitude
642.978 km
Semi-major axis
7,093.841 km
Eccentricity
0.01025
Inclination
98.5622°
RAAN
174.8436°
Arg. of periapsis
60.1898°
True anomaly
299.93008°
Mean anomaly
300.9443°
Eccentric anomaly
300.43785°
Mean motion
3.63263 °/min
Orbital period
99.1 mins
BSTAR
0.00052813
Loading maneuver chart data...
Computing Atmospheric mass density...
Loading historical data...
Loading historical data...
Loading historical data...
Loading historical data...
Loading historical data...
Loading historical data...
Loading historical data...

Documentation

Showing up to 5 results
|